BEIDOU IGSO-7 (43539 NORAD) Tracking and Keplerian Element Data

This shows tracking and keplerian element data for the satellite.

Feedback or suggestion? Click here.




ElementValue
Catalog43539
NameBEIDOU IGSO-7
Epoch Orbit1552
Epoch Day269.6808758
Epoch Year2022
RAAN174.8367
Inclination55.0919
Eccentricity0.0052121
Argument of Perigee227.7694
Mean Anonmoly322.341
Mean Motion1.0027973
Decay Rate-1.3E-06
L11 43539U 18057A 22269.68087580 -.00000130 00000+0 00000+0 0 9991
L22 43539 55.0919 174.8367 0052121 227.7694 322.3410 1.00279730 15526

Live tracking and technical data element details for BEIDOU IGSO-7 (NORAD 43539). BEIDOU IGSO-7 can be tracked NOW for your location showing map with azimuth and elevation plus other details from your city location.

Track the satellite on the map from your city or location and see movement details for azimuth, elevation, latitude, longitude, range, height, and movement on the map or in text.







IsCatalogInMostPopularTable: catalog: 43539, numindb: 619
Update: records affected: 1



GetName: 43539 BEIDOU IGSO-7

Hit Count: updated at: Wed, 28 Sep 2022 23:11:15 GMT